Date_and_time,latitude,longitude,wind_speed,RelWindDirFrom,WindDirFrom,air_pressure,air_temperature,relative_humidity,Temp,platform_speed_wrt_ground,air_pressure_at_mean_sea_level,platform_orientation
2018-07-08 23:50,50.91174,-96.9825233333333,9.8,15.0,290,987.38,26.2,36,25.58,0.0,1012.74,305.8
2018-07-09 00:00,50.9117383333333,-96.9825233333333,8.1,13.0,292,987.41,26.0,35,25.55,0.0,1012.78,36.0
2018-07-09 00:10,50.9117366666667,-96.9825233333333,8.0,12.7,298,987.37,26.0,35,25.51,0.0,1012.74,36.0
2018-07-09 00:20,50.9117366666667,-96.982525,7.8,11.2,295,987.46,26.0,35,25.46,0.0,1012.85,36.0
2018-07-09 00:30,50.91174,-96.9825333333333,6.5,11.4,304,987.51,25.9,35,25.41,0.0,1012.90,36.0
2018-07-09 00:40,50.9117383333333,-96.98253,6.2,12.1,313,987.57,25.9,35,25.35,0.0,1012.97,36.0
2018-07-09 00:50,50.9117233333333,-96.982525,4.7,12.5,335,987.73,25.6,41,25.29,0.0,1013.14,36.0
2018-07-09 01:00,50.91173,-96.9825216666667,5.0,10.9,15,987.86,24.1,53,25.12,0.0,1013.34,270.0
2018-07-09 01:10,50.91174,-96.9825266666667,5.1,10.4,29,987.94,23.5,54,24.89,0.0,1013.46,270.0
2018-07-09 01:20,50.9117366666667,-96.98253,4.2,10.1,12,987.91,23.2,54,24.68,0.0,1013.44,270.0
2018-07-09 01:30,50.911735,-96.9825266666667,3.9,7.1,11,987.95,23.2,54,24.53,0.0,1013.47,270.0
2018-07-09 01:40,50.911735,-96.9825283333333,5.9,9.0,10,987.97,23.0,52,24.40,0.0,1013.51,270.0
2018-07-09 01:50,50.911735,-96.98253,4.6,7.0,1,988.08,22.7,51,24.26,0.0,1013.65,270.0
2018-07-09 02:00,50.911735,-96.98253,5.4,8.6,6,988.10,22.3,49,24.11,0.0,1013.68,108.0
2018-07-09 02:10,50.9117466666667,-96.9825466666667,3.7,6.6,4,988.12,21.9,50,23.96,0.0,1013.72,108.0
2018-07-09 02:20,50.91174,-96.9825283333333,3.2,4.7,347,988.14,21.2,52,23.86,0.0,1013.77,108.0
2018-07-09 02:30,50.9117566666667,-96.9825283333333,2.8,4.1,338,988.19,20.7,54,23.80,0.0,1013.84,108.0
2018-07-09 02:40,50.9117133333333,-96.9825233333333,3.2,4.0,352,988.22,20.2,55,23.75,0.0,1013.91,108.0
2018-07-09 02:50,50.91173,-96.9825316666667,3.3,4.0,341,988.28,19.6,58,23.69,0.0,1014.07,108.0
2018-07-09 03:00,50.9117333333333,-96.9825283333333,3.7,4.5,341,988.37,19.4,58,23.59,0.0,1014.19,360.0
2018-07-09 03:10,50.9117366666667,-96.9825266666667,2.9,4.2,339,988.50,19.0,60,23.44,0.0,1014.36,360.0
2018-07-09 03:20,50.9117383333333,-96.9825216666667,2.0,2.9,327,988.66,18.7,61,23.29,0.0,1014.54,360.0
2018-07-09 03:30,50.9117433333333,-96.9825233333333,2.1,2.6,292,988.80,18.6,61,23.16,0.0,1014.69,360.0
2018-07-09 03:40,50.91173,-96.98253,3.0,4.0,267,988.98,18.5,61,23.02,0.0,1014.90,360.0
2018-07-09 03:50,50.9117283333333,-96.9825216666667,3.0,3.6,264,989.12,18.2,62,22.87,0.0,1015.07,360.0
2018-07-09 04:00,50.91173,-96.9825183333333,3.3,4.1,262,989.15,17.9,62,22.67,0.0,1015.14,0.0
2018-07-09 04:10,50.91173,-96.9825166666667,3.9,4.8,250,989.25,17.7,63,22.50,0.0,1015.28,0.0
2018-07-09 04:20,50.9117283333333,-96.9825166666667,4.0,5.3,246,989.36,17.5,64,22.37,0.0,1015.42,0.0
2018-07-09 04:30,50.91173,-96.98252,3.9,4.9,253,989.53,17.4,65,22.26,0.0,1015.62,0.0
2018-07-09 04:40,50.9117283333333,-96.98252,3.4,4.6,264,989.65,17.2,65,22.12,0.0,1015.78,0.0
2018-07-09 04:50,50.91173,-96.98252,3.8,4.5,262,989.73,17.4,64,21.96,0.0,1015.87,0.0
2018-07-09 05:00,50.9117316666667,-96.9825216666667,3.1,3.8,267,989.86,17.3,65,21.78,0.0,1016.02,170.2
2018-07-09 05:10,50.91173,-96.9825216666667,2.5,3.4,265,989.96,17.1,66,21.63,0.0,1016.15,170.2
2018-07-09 05:20,50.91173,-96.982515,2.5,3.8,265,990.06,16.8,67,21.56,0.0,1016.26,170.2
2018-07-09 05:30,50.91173,-96.9825333333333,3.0,3.7,262,990.16,16.6,66,21.46,0.0,1016.38,170.2
2018-07-09 05:40,50.9117283333333,-96.98253,2.7,3.8,257,990.26,16.5,67,21.38,0.0,1016.50,170.2
2018-07-09 05:50,50.9117283333333,-96.9825266666667,2.5,3.4,268,990.35,16.1,69,21.35,0.0,1016.63,170.2
2018-07-09 06:00,50.9117016666667,-96.9825483333333,3.0,4.2,285,990.39,15.5,72,21.29,0.0,1016.71,219.8
2018-07-09 06:10,50.9117633333333,-96.9824866666667,3.2,4.5,283,990.43,15.1,73,21.16,0.0,1016.78,219.8
2018-07-09 06:20,50.9117266666667,-96.9825333333333,3.3,4.6,273,990.48,14.9,73,21.10,0.0,1016.84,219.8
2018-07-09 06:30,50.911735,-96.9825233333333,3.7,5.0,268,990.59,14.9,72,20.99,0.0,1016.96,219.8
2018-07-09 06:40,50.911735,-96.9825266666667,4.2,6.0,251,990.78,14.9,70,20.82,0.0,1017.15,219.8
2018-07-09 06:50,50.911735,-96.982525,3.9,5.8,260,990.89,14.7,70,20.73,0.0,1017.27,219.8
2018-07-09 07:00,50.9117366666667,-96.9825283333333,4.1,5.1,265,991.02,14.7,69,20.65,0.0,1017.42,350.2
2018-07-09 07:10,50.9117433333333,-96.9825066666667,4.7,5.9,264,991.12,14.7,68,20.49,0.0,1017.54,350.2
2018-07-09 07:20,50.9117433333333,-96.9825433333333,4.5,5.6,275,991.22,14.7,68,20.31,0.0,1017.64,350.2
2018-07-09 07:30,50.9117383333333,-96.9825316666667,4.9,6.1,277,991.30,14.6,68,20.10,0.0,1017.73,350.2
2018-07-09 07:40,50.9117333333333,-96.9825316666667,5.3,6.2,275,991.36,14.7,67,19.89,0.0,1017.81,350.2
2018-07-09 07:50,50.9117466666667,-96.98252,4.8,5.9,278,991.38,14.6,69,19.70,0.0,1017.87,350.2
2018-07-09 08:00,50.9117383333333,-96.9825166666667,4.3,5.0,273,991.42,14.3,70,19.59,0.0,1017.94,360.0
2018-07-09 08:10,50.9117416666667,-96.9825133333333,4.6,6.0,278,991.54,14.3,70,19.48,0.0,1018.07,360.0
2018-07-09 08:20,50.9117316666667,-96.98253,4.0,5.0,277,991.52,14.2,71,19.46,0.0,1018.05,360.0
2018-07-09 08:30,50.91173,-96.98253,4.3,5.5,274,991.52,14.2,71,19.47,0.0,1018.06,360.0
2018-07-09 08:40,50.9117283333333,-96.9825283333333,3.8,5.0,263,991.61,13.9,72,19.43,0.0,1018.17,360.0
2018-07-09 08:50,50.91173,-96.982525,4.5,6.2,257,991.82,13.5,73,19.43,0.0,1018.40,360.0
2018-07-09 09:00,50.9117216666667,-96.9825083333333,4.9,7.3,260,991.92,13.1,75,19.37,0.0,1018.52,63.5
2018-07-09 09:10,50.91172,-96.98251,5.4,8.5,265,991.93,13.2,75,19.24,0.0,1018.54,63.5
2018-07-09 09:20,50.91171,-96.9825283333333,4.6,5.9,267,992.00,13.3,75,19.10,0.0,1018.60,63.5
2018-07-09 09:30,50.91172,-96.982525,4.9,7.1,254,991.99,13.2,76,18.97,0.0,1018.59,63.5
2018-07-09 09:40,50.91173,-96.9825333333333,5.1,7.1,260,992.08,13.2,76,18.88,0.0,1018.69,63.5
2018-07-09 09:50,50.9117316666667,-96.98253,5.0,6.6,249,992.11,13.0,76,18.81,0.0,1018.75,63.5
2018-07-09 10:00,50.911735,-96.98253,6.1,9.3,240,992.19,12.7,77,18.72,0.0,1018.84,0.0
2018-07-09 10:10,50.9117333333333,-96.98253,6.4,9.9,236,992.26,12.6,77,18.52,0.0,1018.92,0.0
2018-07-09 10:20,50.911725,-96.982515,6.8,9.2,235,992.25,12.3,78,18.31,0.0,1018.92,0.0
2018-07-09 10:30,50.911735,-96.9825233333333,6.8,9.7,245,992.25,12.5,78,18.08,0.0,1018.94,0.0
2018-07-09 10:40,50.9117333333333,-96.9825216666667,6.5,9.2,255,992.31,12.7,78,17.99,0.0,1019.01,0.0
2018-07-09 10:50,50.9117333333333,-96.98253,6.2,9.2,253,992.37,12.8,78,17.99,0.0,1019.08,0.0
2018-07-09 11:00,50.911735,-96.9825316666667,6.8,9.9,252,992.43,13.1,76,18.00,0.0,1019.12,234.2
2018-07-09 11:10,50.911735,-96.9825366666667,7.3,9.6,254,992.49,13.4,75,18.01,0.0,1019.17,234.2
2018-07-09 11:20,50.9117483333333,-96.9825233333333,6.7,8.9,261,992.53,13.7,74,18.04,0.0,1019.20,234.2
2018-07-09 11:30,50.9117466666667,-96.9825216666667,6.4,9.2,267,992.50,14.0,74,18.08,0.0,1019.15,234.2
2018-07-09 11:40,50.9117266666667,-96.9825016666667,5.7,8.4,264,992.57,14.3,74,18.18,0.0,1019.22,234.2
2018-07-09 11:50,50.9117216666667,-96.9825266666667,6.0,8.3,262,992.58,14.2,75,18.25,0.0,1019.25,234.2
2018-07-09 12:00,50.9117233333333,-96.9825216666667,5.9,9.0,263,992.67,14.3,75,18.29,0.0,1019.33,305.8
2018-07-09 12:10,50.911715,-96.9825316666667,6.2,9.8,270,992.71,14.5,75,18.30,0.0,1019.39,305.8
2018-07-09 12:20,50.9116933333333,-96.9825233333333,7.0,9.3,275,992.76,15.1,73,18.33,0.0,1019.40,305.8
2018-07-09 12:30,50.9117283333333,-96.9824966666667,7.2,10.2,275,992.82,15.5,72,18.39,0.0,1019.44,305.8
2018-07-09 12:40,50.91172,-96.98253,8.6,11.9,278,992.85,16.0,70,18.49,0.0,1019.43,305.8
2018-07-09 12:50,50.91174,-96.9825233333333,8.1,11.6,281,992.99,16.6,69,18.61,0.0,1019.54,305.8
2018-07-09 13:00,50.911735,-96.9825216666667,8.3,11.9,284,993.02,17.3,66,18.77,0.0,1019.52,90.0
2018-07-09 13:10,50.9117333333333,-96.9825233333333,8.0,11.3,284,993.11,17.9,63,18.96,0.0,1019.58,90.0
2018-07-09 13:20,50.9117333333333,-96.982525,9.2,11.7,289,993.16,18.3,60,19.15,0.0,1019.59,90.0
2018-07-09 13:30,50.9117316666667,-96.982525,9.6,13.9,290,993.18,18.7,59,19.34,0.0,1019.58,90.0
2018-07-09 13:40,50.91173,-96.9825233333333,9.3,12.7,291,993.23,19.1,58,19.54,0.0,1019.62,90.0
2018-07-09 13:50,50.9117316666667,-96.9825233333333,8.8,12.6,295,993.34,19.5,57,19.73,0.0,1019.70,90.0
2018-07-09 14:00,50.9117316666667,-96.9825216666667,10.4,14.7,290,993.35,19.8,56,19.92,0.0,1019.70,170.2
2018-07-09 14:10,50.9117316666667,-96.9825216666667,9.4,13.5,293,993.51,20.1,54,20.10,0.0,1019.82,170.2
2018-07-09 14:20,50.91175,-96.98251,10.6,14.1,292,993.52,20.3,53,20.27,0.0,1019.80,170.2
2018-07-09 14:30,50.9117483333333,-96.98251,9.1,14.1,297,993.55,20.6,52,20.43,0.0,1019.80,170.2
2018-07-09 14:40,50.911745,-96.9825116666667,10.3,13.1,287,993.48,20.8,52,20.57,0.0,1019.68,170.2
2018-07-09 14:50,50.9117416666667,-96.9825166666667,8.2,12.2,291,993.58,21.0,50,20.71,0.0,1019.75,170.2
2018-07-09 15:00,50.9117416666667,-96.9825166666667,7.7,12.0,283,993.70,21.3,49,20.85,0.0,1019.84,22.7
2018-07-09 15:10,50.9117416666667,-96.9825233333333,8.8,13.3,287,993.73,21.5,46,21.00,0.0,1019.83,22.7
2018-07-09 15:20,50.9117233333333,-96.9825133333333,8.3,12.5,277,993.83,21.7,45,21.14,0.0,1019.91,22.7
2018-07-09 15:30,50.91174,-96.9825316666667,8.1,12.1,289,993.79,22.0,43,21.32,0.0,1019.84,22.7
2018-07-09 15:40,50.9117433333333,-96.9825316666667,7.8,11.3,306,993.81,22.4,40,21.69,0.0,1019.82,22.7
2018-07-09 15:50,50.91173,-96.9825233333333,9.4,16.3,285,993.78,22.5,39,21.95,0.0,1019.78,22.7
2018-07-09 16:00,50.9117283333333,-96.98253,10.8,18.4,293,993.74,22.6,35,22.11,0.0,1019.71,227.9
2018-07-09 16:10,50.91174,-96.9825383333333,8.7,15.0,304,993.86,23.1,34,22.23,0.0,1019.80,227.9
2018-07-09 16:20,50.911715,-96.9825133333333,8.6,15.8,298,993.92,23.2,35,22.30,0.0,1019.85,227.9
2018-07-09 16:30,50.9117316666667,-96.9825316666667,9.3,15.1,282,993.92,23.0,35,22.37,0.0,1019.85,227.9
2018-07-09 16:40,50.9117283333333,-96.9825283333333,8.6,14.8,293,993.90,23.0,35,22.44,0.0,1019.82,227.9
2018-07-09 16:50,50.9117266666667,-96.9825266666667,8.5,15.3,289,993.90,23.0,36,22.48,0.0,1019.81,227.9
2018-07-09 17:00,50.91173,-96.98253,6.5,12.9,292,994.00,23.5,35,22.53,0.0,1019.87,270.0
2018-07-09 17:10,50.91173,-96.9825283333333,9.1,16.1,308,993.98,23.5,34,22.59,0.0,1019.85,270.0
2018-07-09 17:20,50.91174,-96.9825666666667,9.9,19.3,286,993.97,23.5,33,22.65,0.0,1019.82,270.0
2018-07-09 17:30,50.9117383333333,-96.9825416666667,12.1,16.5,286,993.87,23.5,32,22.77,0.0,1019.71,270.0
2018-07-09 17:40,50.911735,-96.9825366666667,8.4,16.4,275,993.97,23.6,32,22.88,0.0,1019.81,270.0
2018-07-09 17:50,50.9117316666667,-96.9825333333333,11.5,17.7,299,993.83,23.8,32,22.96,0.0,1019.64,270.0
2018-07-09 18:00,50.91173,-96.9825316666667,7.7,14.7,290,993.98,23.9,33,23.04,0.0,1019.77,216.0
2018-07-09 18:10,50.91173,-96.9825333333333,10.0,17.3,293,993.89,24.3,33,23.10,0.0,1019.65,216.0
2018-07-09 18:20,50.91173,-96.9825333333333,10.1,15.7,298,993.86,24.2,30,23.21,0.0,1019.64,216.0
2018-07-09 18:30,50.9117283333333,-96.9825316666667,12.3,17.1,294,993.63,24.3,29,23.29,0.0,1019.40,216.0
2018-07-09 18:40,50.91173,-96.9825316666667,10.8,16.2,283,993.71,24.6,29,23.43,0.0,1019.47,216.0
2018-07-09 18:50,50.9117283333333,-96.9825316666667,7.7,15.4,271,993.79,24.5,29,23.56,0.0,1019.53,216.0
2018-07-09 19:00,50.9117283333333,-96.9825316666667,11.3,20.1,285,993.53,24.6,28,23.64,0.0,1019.26,0.0
2018-07-09 19:10,50.9117283333333,-96.9825316666667,8.7,14.5,282,993.67,25.0,28,23.73,0.0,1019.39,0.0
2018-07-09 19:20,50.9117183333333,-96.9825233333333,10.0,16.3,292,993.60,25.0,29,23.83,0.0,1019.32,0.0
2018-07-09 19:30,50.9117366666667,-96.98255,9.9,16.6,281,993.59,25.0,29,23.98,0.0,1019.31,0.0
2018-07-09 19:40,50.9117316666667,-96.9825316666667,9.8,15.4,289,993.57,25.0,29,24.18,0.0,1019.27,0.0
2018-07-09 19:50,50.91173,-96.9825316666667,12.0,17.7,282,993.44,25.1,29,24.34,0.0,1019.13,0.0
2018-07-09 20:00,50.91173,-96.98253,8.3,14.8,310,993.57,25.2,28,24.48,0.0,1019.23,0.0
2018-07-09 20:10,50.91173,-96.9825266666667,7.1,15.0,296,993.51,25.4,28,24.49,0.0,1019.18,0.0
2018-07-09 20:20,50.91173,-96.9825266666667,10.7,17.3,276,993.22,25.5,28,24.57,0.0,1018.86,0.0
2018-07-09 20:30,50.91173,-96.982525,7.4,12.6,279,993.31,25.5,28,24.74,0.0,1018.95,0.0
2018-07-09 20:40,50.91173,-96.9825183333333,5.8,13.0,279,993.23,25.9,28,24.79,0.0,1018.85,0.0
2018-07-09 20:50,50.9117266666667,-96.9825283333333,7.0,12.1,303,993.18,25.9,26,24.84,0.0,1018.79,0.0
2018-07-09 21:00,50.911725,-96.9825283333333,8.5,15.3,283,993.13,25.8,27,24.88,0.0,1018.74,142.5
2018-07-09 21:10,50.9117233333333,-96.982525,10.3,16.1,289,993.14,25.8,26,24.99,0.0,1018.74,142.5
2018-07-09 21:20,50.9117216666667,-96.9825183333333,7.6,14.0,295,993.17,25.9,27,25.04,0.0,1018.77,142.5
2018-07-09 21:30,50.9117233333333,-96.9825633333333,7.8,14.1,299,993.16,26.1,27,25.05,0.0,1018.75,142.5
2018-07-09 21:40,50.91173,-96.9825533333333,9.0,14.1,285,993.17,26.1,27,25.10,0.0,1018.76,142.5
2018-07-09 21:50,50.9117483333333,-96.9824766666667,5.6,11.6,275,993.26,26.0,27,25.15,0.0,1018.85,142.5
2018-07-09 22:00,50.91173,-96.982515,6.7,12.0,285,993.18,26.2,27,25.17,0.0,1018.75,90.0
2018-07-09 22:10,50.9117383333333,-96.98254,7.8,14.5,309,993.10,26.3,26,25.21,0.0,1018.66,90.0
2018-07-09 22:20,50.9117266666667,-96.9825216666667,5.1,13.0,306,993.08,26.4,26,25.17,0.0,1018.63,90.0
2018-07-09 22:30,50.9117266666667,-96.9825266666667,8.4,14.8,289,992.98,26.3,25,25.18,0.0,1018.51,90.0
2018-07-09 22:40,50.91173,-96.982525,6.6,10.6,302,993.02,26.3,26,25.24,0.0,1018.56,90.0
2018-07-09 22:50,50.91173,-96.9825283333333,8.3,14.1,290,992.88,26.2,27,25.26,0.0,1018.42,90.0
2018-07-09 23:00,50.9117333333333,-96.982535,6.0,9.4,287,992.90,26.3,27,25.31,0.0,1018.44,270.0
2018-07-09 23:10,50.9117216666667,-96.9825183333333,4.9,8.9,306,992.89,26.3,28,25.30,0.0,1018.42,270.0
2018-07-09 23:20,50.9117283333333,-96.98253,7.9,12.8,295,992.74,26.4,27,25.25,0.0,1018.26,270.0
2018-07-09 23:30,50.9117316666667,-96.9825283333333,6.2,10.1,294,992.66,26.1,26,25.28,0.0,1018.20,270.0
2018-07-09 23:40,50.9117316666667,-96.9825216666667,7.2,11.9,292,992.61,26.1,27,25.27,0.0,1018.14,270.0
2018-07-09 23:50,50.91173,-96.9825233333333,6.4,13.2,307,992.56,26.2,27,25.27,0.0,1018.08,270.0
